This is the latest recevied weather packets stored in our database for station/object KC7RJK-2. If no packets are shown the sender has not sent any weather packets the latest 10 day(s).
| Time | Temp. | Humidity | Pressure | Rain* | Wind** | Luminosity | Snow |
|---|---|---|---|---|---|---|---|
| 1777846210 | 28.89° C | 53% | 1008.4 hPa | 0 mm | - | - | - |
| 1777845612 | 28.33° C | 51% | 1008.6 hPa | 0 mm | - | - | - |
| 1777845010 | 28.89° C | 47% | 1008.7 hPa | 0 mm | - | - | - |
| 1777844410 | 28.89° C | 50% | 1008.8 hPa | 0 mm | - | - | - |
| 1777843811 | 28.33° C | 51% | 1008.9 hPa | 0 mm | - | - | - |
| 1777843209 | 27.78° C | 50% | 1009 hPa | 0 mm | - | - | - |
| 1777842609 | 27.22° C | 54% | 1009 hPa | 0 mm | - | - | - |
| 1777842009 | 27.22° C | 59% | 1009.2 hPa | 0 mm | - | - | - |
| 1777841408 | 26.67° C | 58% | 1009.2 hPa | 0 mm | - | - | - |
| 1777840808 | 26.67° C | 60% | 1009.4 hPa | 0 mm | - | - | - |
| 1777840211 | 26.11° C | 64% | 1009.6 hPa | 0 mm | - | - | - |
| 1777839610 | 25.56° C | 64% | 1009.7 hPa | 0 mm | - | - | - |
| 1777839010 | 25° C | 60% | 1009.9 hPa | 0 mm | - | - | - |
| 1777838412 | 24.44° C | 62% | 1010 hPa | 0 mm | - | - | - |
| 1777837809 | 24.44° C | 61% | 1010.1 hPa | 0 mm | - | - | - |
| 1777837210 | 23.89° C | 59% | 1010.3 hPa | 0 mm | - | - | - |
| 1777836611 | 23.89° C | 61% | 1010.4 hPa | 0 mm | - | - | - |
| 1777836010 | 23.33° C | 63% | 1010.4 hPa | 0 mm | - | - | - |
| 1777835410 | 23.33° C | 64% | 1010.5 hPa | 0 mm | - | - | - |
| 1777834811 | 22.78° C | 68% | 1010.8 hPa | 0 mm | - | - | - |
| 1777834210 | 22.78° C | 67% | 1011 hPa | 0 mm | - | - | - |
| 1777833610 | 22.22° C | 70% | 1011 hPa | 0 mm | - | - | - |
| 1777833009 | 22.22° C | 70% | 1011.1 hPa | 0 mm | - | - | - |
| 1777832409 | 21.67° C | 72% | 1011.2 hPa | 0 mm | - | - | - |
| 1777831808 | 21.11° C | 71% | 1011.3 hPa | 0 mm | - | - | - |
* Rain latest hour (hover to see other rain measurements)
** Current wind speed in m/s (hover to see current wind gust speed)